STARLINK-34986 (66446 NORAD) Tracking and Keplerian Element Data

This shows tracking and keplerian element data for the satellite.

Feedback or suggestion? Click here.




ElementValue
Catalog66446
NameSTARLINK-34986
Epoch Orbit730
Epoch Day354.08883587
Epoch Year2025
RAAN5.0717
Inclination42.9993
Eccentricity7.76E-05
Argument of Perigee240.771
Mean Anonmoly119.3069
Mean Motion15.40718405
Decay Rate0.00029189
L11 66446U 25259AA 25354.08883587 .00029189 00000+0 70291-3 0 9995
L22 66446 42.9993 5.0717 0000776 240.7710 119.3069 15.40718405 7309



Live tracking and technical data element details for STARLINK-34986 (NORAD 66446). STARLINK-34986 can be tracked NOW for your location showing map with azimuth and elevation plus other details from your city location.







IsCatalogInMostPopularTable: catalog: 66446, numindb: 3
Update: records affected: 1



GetName: 66446 STARLINK-34986

Hit Count: updated at: Mon, 09 Feb 2026 07:37:23 GMT